Broken Bow, NE

1:36 PM CDT on April 23, 2017 (GMT -0500)
Broken Bow Municipal

Weather History for KBBW - November, 2011

Change the Weather History Date:

Friday, November 11, 2011

  Actual Average Record
Temperature  
Mean Temperature 46 °F 38 °F  
Max Temperature 64 °F 51 °F 75 °F (1971)
Min Temperature 27 °F 25 °F -19 °F (1986)
Degree Days  
Heating Degree Days 19 27  
Month to date heating degree days 293 267  
Cooling Degree Days 0 0  
Month to date cooling degree days 0 0  
Year to date cooling degree days 755 768  
Moisture  
Dew Point 17 °F    
Average Humidity 41    
Maximum Humidity 68    
Minimum Humidity 13    
Precipitation  
Precipitation 0.00 in 0.04 in 0.70 in (1982)
Sea Level Pressure  
Sea Level Pressure 29.79 in    
Wind  
Wind Speed 7 mph (West)    
Max Wind Speed 17 mph    
Max Gust Speed 21 mph    
Visibility 10 miles    
Events      
T = Trace of Precipitation, MM = Missing Value Source: NWS Daily Summary

Daily Weather History Graph

Daily Weather History Graph

Search for Another Location

Airport or City:

Trip Planner

Search our weather history database for the weather conditions in past years. The results will help you decide how hot, cold, wet, or windy it might be!

Date:

Astronomy

Nov. 11, 2011 Rise Set
Actual Time 7:21 AM CST 5:22 PM CST
Civil Twilight 6:52 AM CST 5:52 PM CST
Nautical Twilight 6:19 AM CST 6:25 PM CST
Astronomical Twilight 5:46 AM CST 6:57 PM CST
Moon 5:51 PM CST (11/11) 8:12 AM CST (11/11)
Length of Visible Light 10h 59m
Length of Day
10h 00m
Full, 99% of the Moon is Illuminated
Nov 11
Full
Nov 18
Last Quarter
Nov 25
New
Dec 2
First Quarter
Dec 10
Full

Hourly Weather History & Observations

Time (CST) Temp. Windchill Dew Point Humidity Pressure Visibility Wind Dir Wind Speed Gust Speed Precip Events Conditions
12:53 AM 30.0 °F 23.2 °F 18.0 °F 61% 29.88 in 10.0 mi West 6.9 mph - N/A   Clear
1:53 AM 39.9 °F 31.8 °F 17.1 °F 40% 29.84 in 10.0 mi West 15.0 mph - N/A   Clear
2:53 AM 39.2 °F 30.5 °F 17.6 °F 42% 29.82 in 10.0 mi West 16.1 mph - N/A   Clear
3:53 AM 39.9 °F 32.9 °F 17.1 °F 40% 29.82 in 10.0 mi West 11.5 mph - N/A   Clear
4:53 AM 34.0 °F 28.8 °F 17.1 °F 50% 29.83 in 10.0 mi West 5.8 mph - N/A   Clear
5:53 AM 39.2 °F 32.0 °F 17.6 °F 42% 29.81 in 10.0 mi WNW 11.5 mph - N/A   Clear
6:53 AM 39.0 °F 31.4 °F 17.1 °F 41% 29.85 in 10.0 mi NW 12.7 mph - N/A   Clear
7:53 AM 39.0 °F 34.0 °F 17.1 °F 41% 29.87 in 10.0 mi WNW 6.9 mph - N/A   Clear
8:53 AM 43.0 °F 40.3 °F 19.0 °F 38% 29.88 in 10.0 mi West 4.6 mph - N/A   Clear
9:53 AM 50.0 °F - 19.9 °F 31% 29.87 in 10.0 mi WNW 12.7 mph - N/A   Clear
10:53 AM 55.9 °F - 19.9 °F 25% 29.87 in 10.0 mi WNW 9.2 mph - N/A   Clear
11:53 AM 60.1 °F - 18.0 °F 20% 29.84 in 10.0 mi WNW 12.7 mph - N/A   Clear
12:53 PM 62.1 °F - 17.1 °F 18% 29.81 in 10.0 mi WNW 9.2 mph - N/A   Clear
1:53 PM 63.0 °F - 15.1 °F 16% 29.76 in 10.0 mi WNW 11.5 mph - N/A   Clear
2:53 PM 64.0 °F - 14.0 °F 14% 29.75 in 10.0 mi West 10.4 mph - N/A   Clear
3:53 PM 63.0 °F - 15.1 °F 16% 29.73 in 10.0 mi WSW 8.1 mph - N/A   Clear
4:53 PM 57.0 °F - 17.1 °F 21% 29.74 in 10.0 mi SSW 5.8 mph - N/A   Clear
5:53 PM 46.0 °F 42.5 °F 17.1 °F 31% 29.75 in 10.0 mi SSW 6.9 mph - N/A   Clear
6:53 PM 33.1 °F - 17.1 °F 52% 29.76 in 10.0 mi Calm Calm - N/A   Clear
7:53 PM 30.9 °F - 18.0 °F 59% 29.76 in 10.0 mi Calm Calm - N/A   Clear
8:53 PM 28.9 °F - 18.0 °F 64% 29.73 in 10.0 mi Calm Calm - N/A   Clear
9:53 PM 28.9 °F - 17.1 °F 61% 29.72 in 10.0 mi Calm Calm - N/A   Clear
10:53 PM 28.0 °F - 18.0 °F 66% 29.68 in 10.0 mi Calm Calm - N/A   Clear
11:53 PM 30.0 °F - 18.0 °F 61% 29.65 in 10.0 mi Calm Calm - N/A   Clear